Schneifelwetter: Wetterstation Hallschlag, 537 m . NN
Wetterdaten: Donnerstag, 09.12.2010
Datum Zeit Temp. A. Feuchte A. Luftdruck Regen Wind Richtung Richtung Sonnenschein Helligkeit T Regen Taupunkt Windchill
09.12.2010 00:01 -5,7 C 95 % 1010 hPa 0,0 l/m 0,7 km/h (0 Bft) W 275 0 min 0 lux 0,00 min -6,4 C -5,7 C
09.12.2010 00:16 -6,4 C 95 % 1010 hPa 0,0 l/m 2,6 km/h (1 Bft) W-NW22.5 300 0 min 0 lux 0,00 min -7,1 C -6,4 C
09.12.2010 00:31 -6,7 C 95 % 1011 hPa 1,5 l/m 4,2 km/h (1 Bft) W-NW22.5 290 0 min 0 lux 15,00 min -7,4 C -6,7 C
09.12.2010 00:46 -6,8 C 96 % 1011 hPa 0,6 l/m 1,6 km/h (1 Bft) W45 260 0 min 0 lux 15,00 min -7,3 C -6,8 C
09.12.2010 01:01 -6,8 C 96 % 1011 hPa 0,6 l/m 9,2 km/h (2 Bft) W22.5 260 0 min 0 lux 15,00 min -7,3 C -10,1 C
09.12.2010 01:16 -6,4 C 97 % 1012 hPa 0,3 l/m 13,5 km/h (3 Bft) W22.5 265 0 min 0 lux 15,00 min -6,8 C -13,6 C
09.12.2010 01:31 -6,0 C 97 % 1012 hPa 0,3 l/m 15,1 km/h (3 Bft) W22.5 270 0 min 0 lux 15,00 min -6,4 C -14,3 C
09.12.2010 01:46 -5,6 C 97 % 1012 hPa 0,0 l/m 11,8 km/h (2 Bft) W22.5 270 0 min 0 lux 0,00 min -6,0 C -11,3 C
09.12.2010 02:01 -5,4 C 97 % 1012 hPa 0,0 l/m 10,1 km/h (2 Bft) W45 280 0 min 0 lux 0,00 min -5,8 C -9,5 C
09.12.2010 02:16 -5,0 C 98 % 1012 hPa 0,0 l/m 19,2 km/h (3 Bft) W22.5 265 0 min 0 lux 0,00 min -5,3 C -15,7 C
09.12.2010 02:31 -4,8 C 97 % 1013 hPa 0,0 l/m 16,5 km/h (3 Bft) W45 265 0 min 0 lux 0,00 min -5,2 C -13,8 C
09.12.2010 02:46 -4,8 C 97 % 1013 hPa 0,0 l/m 14,3 km/h (3 Bft) W22.5 265 0 min 0 lux 0,00 min -5,2 C -12,3 C
09.12.2010 03:01 -4,6 C 98 % 1013 hPa 0,0 l/m 16,5 km/h (3 Bft) W22.5 265 0 min 0 lux 0,00 min -4,9 C -13,5 C
09.12.2010 03:16 -4,2 C 98 % 1013 hPa 0,0 l/m 13,5 km/h (3 Bft) W22.5 265 0 min 0 lux 0,00 min -4,5 C -11,0 C
09.12.2010 03:31 -4,1 C 98 % 1014 hPa 0,0 l/m 15,1 km/h (3 Bft) W22.5 265 0 min 0 lux 0,00 min -4,4 C -12,0 C
09.12.2010 03:46 -3,8 C 98 % 1014 hPa 0,0 l/m 21,1 km/h (4 Bft) W45 265 0 min 0 lux 0,00 min -4,1 C -15,1 C
09.12.2010 04:02 -3,8 C 98 % 1014 hPa 0,0 l/m 20,1 km/h (4 Bft) W22.5 265 0 min 0 lux 0,00 min -4,1 C -14,6 C
09.12.2010 04:17 -3,8 C 98 % 1014 hPa 0,3 l/m 12,5 km/h (3 Bft) W22.5 260 0 min 0 lux 15,00 min -4,1 C -9,8 C
09.12.2010 04:32 -3,8 C 98 % 1014 hPa 0,0 l/m 13,0 km/h (3 Bft) W-SW 250 0 min 0 lux 0,00 min -4,1 C -10,2 C
09.12.2010 04:47 -3,9 C 98 % 1014 hPa 0,0 l/m 15,1 km/h (3 Bft) W-SW22.5 255 0 min 0 lux 0,00 min -4,2 C -11,8 C
09.12.2010 05:02 -3,8 C 98 % 1015 hPa 0,0 l/m 16,6 km/h (3 Bft) W-SW22.5 255 0 min 0 lux 0,00 min -4,1 C -12,6 C
09.12.2010 05:17 -3,6 C 98 % 1015 hPa 0,3 l/m 22,3 km/h (4 Bft) W22.5 260 0 min 0 lux 15,00 min -3,9 C -15,4 C
09.12.2010 05:32 -3,4 C 99 % 1015 hPa 0,0 l/m 23,6 km/h (4 Bft) W22.5 270 0 min 0 lux 0,00 min -3,5 C -15,7 C
09.12.2010 05:47 -3,2 C 99 % 1015 hPa 0,0 l/m 18,0 km/h (3 Bft) W22.5 265 0 min 0 lux 0,00 min -3,3 C -12,7 C
09.12.2010 06:02 -3,2 C 99 % 1015 hPa 0,0 l/m 20,6 km/h (4 Bft) W22.5 260 0 min 0 lux 0,00 min -3,3 C -14,1 C
09.12.2010 06:17 -3,2 C 99 % 1016 hPa 0,0 l/m 11,9 km/h (2 Bft) W22.5 260 0 min 0 lux 0,00 min -3,3 C -8,6 C
09.12.2010 06:32 -3,1 C 98 % 1016 hPa 0,3 l/m 10,9 km/h (2 Bft) W-SW22.5 255 0 min 0 lux 15,00 min -3,4 C -7,7 C
09.12.2010 06:47 -3,0 C 99 % 1016 hPa 0,0 l/m 15,8 km/h (3 Bft) W45 260 0 min 0 lux 0,00 min -3,1 C -11,1 C
09.12.2010 07:02 -2,9 C 99 % 1016 hPa 0,0 l/m 20,1 km/h (4 Bft) W22.5 270 0 min 0 lux 0,00 min -3,0 C -13,4 C
09.12.2010 07:17 -2,6 C 99 % 1016 hPa 0,3 l/m 26,4 km/h (4 Bft) W45 275 0 min 0 lux 15,00 min -2,7 C -15,8 C
09.12.2010 07:32 -2,6 C 99 % 1017 hPa 0,0 l/m 24,5 km/h (4 Bft) W45 280 0 min 0 lux 0,00 min -2,7 C -15,0 C
09.12.2010 07:47 -2,5 C 99 % 1017 hPa 0,0 l/m 21,9 km/h (4 Bft) W45 275 0 min 0 lux 0,00 min -2,6 C -13,8 C
09.12.2010 08:02 -2,4 C 99 % 1017 hPa 0,0 l/m 25,9 km/h (4 Bft) W22.5 265 0 min 0 lux 0,00 min -2,5 C -15,3 C
09.12.2010 08:16 -2,4 C 99 % 1017 hPa 0,0 l/m 28,8 km/h (4 Bft) W22.5 265 0 min 192 lux 0,00 min -2,5 C -16,4 C
09.12.2010 08:31 -2,5 C 99 % 1018 hPa 0,3 l/m 23,1 km/h (4 Bft) W45 270 0 min 1,18 klux 15,00 min -2,6 C -14,3 C
09.12.2010 08:46 -2,5 C 98 % 1018 hPa 0,3 l/m 16,7 km/h (3 Bft) W45 270 0 min 5,13 klux 15,00 min -2,8 C -11,1 C
09.12.2010 09:01 -2,3 C 99 % 1018 hPa 0,0 l/m 16,8 km/h (3 Bft) W45 260 0 min 6,98 klux 0,00 min -2,4 C -10,9 C
09.12.2010 09:17 -2,0 C 98 % 1018 hPa 0,3 l/m 20,6 km/h (4 Bft) W45 270 0 min 5,84 klux 16,00 min -2,3 C -12,5 C
09.12.2010 09:32 -1,8 C 98 % 1018 hPa 0,3 l/m 29,6 km/h (5 Bft) W45 270 0 min 5,56 klux 15,00 min -2,1 C -15,8 C
09.12.2010 09:46 -1,7 C 97 % 1018 hPa 0,0 l/m 26,0 km/h (4 Bft) W45 265 0 min 5,84 klux 0,00 min -2,1 C -14,4 C
09.12.2010 10:01 -1,5 C 97 % 1018 hPa 0,3 l/m 29,5 km/h (5 Bft) W22.5 270 0 min 9,8 klux 15,00 min -1,9 C -15,4 C
09.12.2010 10:16 -1,4 C 97 % 1018 hPa 0,0 l/m 21,6 km/h (4 Bft) W22.5 270 0 min 13,7 klux 0,00 min -1,8 C -12,2 C
09.12.2010 10:31 -1,2 C 97 % 1018 hPa 0,3 l/m 21,0 km/h (4 Bft) W45 265 0 min 12,6 klux 15,00 min -1,6 C -11,7 C
09.12.2010 10:47 -1,1 C 97 % 1018 hPa 0,3 l/m 24,8 km/h (4 Bft) W22.5 260 0 min 17,5 klux 16,00 min -1,5 C -13,1 C
09.12.2010 11:02 -1,2 C 96 % 1019 hPa 0,0 l/m 30,3 km/h (5 Bft) W67.5 275 0 min 10,4 klux 0,00 min -1,8 C -15,2 C
09.12.2010 11:17 -1,3 C 96 % 1019 hPa 0,3 l/m 31,8 km/h (5 Bft) W22.5 275 0 min 10,3 klux 15,00 min -1,9 C -15,8 C
09.12.2010 11:31 -1,3 C 95 % 1019 hPa 0,0 l/m 31,0 km/h (5 Bft) W45 275 0 min 10,5 klux 0,00 min -2,0 C -15,5 C
09.12.2010 11:46 -1,2 C 94 % 1019 hPa 0,0 l/m 33,4 km/h (5 Bft) W45 270 0 min 10,2 klux 0,00 min -2,0 C -16,1 C
09.12.2010 12:01 -1,1 C 93 % 1019 hPa 0,0 l/m 27,5 km/h (4 Bft) W45 260 0 min 13,2 klux 0,00 min -2,1 C -14,1 C
09.12.2010 12:17 -1,0 C 93 % 1019 hPa 0,0 l/m 27,3 km/h (4 Bft) W45 275 0 min 11,6 klux 0,00 min -2,0 C -13,9 C
09.12.2010 12:32 -1,1 C 92 % 1019 hPa 0,0 l/m 34,3 km/h (5 Bft) W45 270 0 min 12,9 klux 0,00 min -2,2 C -16,2 C
09.12.2010 12:46 -1,2 C 93 % 1019 hPa 0,0 l/m 32,9 km/h (5 Bft) W67.5 275 0 min 11,6 klux 0,00 min -2,2 C -16,0 C
09.12.2010 13:01 -1,2 C 93 % 1019 hPa 0,0 l/m 31,2 km/h (5 Bft) W45 270 0 min 10,0 klux 0,00 min -2,2 C -15,5 C
09.12.2010 13:16 -1,0 C 93 % 1019 hPa 0,0 l/m 30,7 km/h (5 Bft) W22.5 265 0 min 16,2 klux 0,00 min -2,0 C -15,0 C
09.12.2010 13:31 -0,9 C 93 % 1019 hPa 0,0 l/m 29,6 km/h (5 Bft) W45 265 0 min 16,3 klux 0,00 min -1,9 C -14,5 C
09.12.2010 13:47 -0,9 C 93 % 1019 hPa 0,0 l/m 29,3 km/h (5 Bft) W22.5 260 0 min 13,2 klux 0,00 min -1,9 C -14,4 C
09.12.2010 14:02 -0,9 C 94 % 1019 hPa 0,0 l/m 29,2 km/h (5 Bft) W22.5 260 0 min 8,30 klux 0,00 min -1,7 C -14,4 C
09.12.2010 14:17 -1,0 C 94 % 1019 hPa 0,0 l/m 33,2 km/h (5 Bft) W45 270 0 min 8,97 klux 0,00 min -1,8 C -15,8 C
09.12.2010 14:31 -1,0 C 93 % 1019 hPa 0,3 l/m 36,4 km/h (5 Bft) W45 280 0 min 9,1 klux 14,00 min -2,0 C -16,6 C
09.12.2010 14:46 -1,0 C 93 % 1019 hPa 0,0 l/m 15,5 km/h (3 Bft) W22.5 270 0 min 4,18 klux 0,00 min -2,0 C -8,5 C
09.12.2010 15:01 -1,0 C 94 % 1019 hPa 0,3 l/m 22,6 km/h (4 Bft) W45 275 0 min 8,64 klux 15,00 min -1,8 C -12,1 C
09.12.2010 15:16 -1,0 C 94 % 1019 hPa 0,3 l/m 27,5 km/h (4 Bft) W45 265 0 min 5,31 klux 15,00 min -1,8 C -14,0 C
09.12.2010 15:31 -0,9 C 94 % 1020 hPa 0,3 l/m 29,1 km/h (5 Bft) W45 275 0 min 8,99 klux 15,00 min -1,7 C -14,4 C
09.12.2010 15:47 -0,9 C 93 % 1020 hPa 0,0 l/m 32,7 km/h (5 Bft) W45 275 0 min 5,76 klux 0,00 min -1,9 C -15,5 C
09.12.2010 16:02 -0,9 C 93 % 1020 hPa 0,0 l/m 22,3 km/h (4 Bft) W45 270 0 min 3,49 klux 0,00 min -1,9 C -11,8 C
09.12.2010 16:17 -1,1 C 93 % 1020 hPa 0,0 l/m 28,6 km/h (4 Bft) W22.5 265 0 min 1,74 klux 0,00 min -2,1 C -14,5 C
09.12.2010 16:31 -1,1 C 94 % 1020 hPa 0,0 l/m 26,6 km/h (4 Bft) W45 270 0 min 549 lux 0,00 min -1,9 C -13,8 C
09.12.2010 16:46 -1,1 C 94 % 1020 hPa 0,0 l/m 26,4 km/h (4 Bft) W45 260 0 min 176 lux 0,00 min -1,9 C -13,7 C
09.12.2010 17:01 -1,1 C 94 % 1020 hPa 0,3 l/m 29,1 km/h (5 Bft) W45 265 0 min 55 lux 15,00 min -1,9 C -14,7 C
09.12.2010 17:16 -1,0 C 94 % 1020 hPa 0,3 l/m 26,5 km/h (4 Bft) W67.5 260 0 min 13 lux 15,00 min -1,8 C -13,6 C
09.12.2010 17:32 -1,1 C 93 % 1021 hPa 0,0 l/m 34,0 km/h (5 Bft) W45 270 0 min 0 lux 0,00 min -2,1 C -16,1 C
09.12.2010 17:47 -1,1 C 93 % 1021 hPa 0,0 l/m 29,6 km/h (5 Bft) W22.5 265 0 min 0 lux 0,00 min -2,1 C -14,8 C
09.12.2010 18:02 -1,1 C 93 % 1021 hPa 0,0 l/m 28,6 km/h (4 Bft) W45 275 0 min 0 lux 0,00 min -2,1 C -14,5 C
09.12.2010 18:16 -1,2 C 94 % 1021 hPa 0,0 l/m 30,7 km/h (5 Bft) W22.5 265 0 min 0 lux 0,00 min -2,0 C -15,3 C
09.12.2010 18:31 -1,1 C 94 % 1021 hPa 0,0 l/m 30,5 km/h (5 Bft) W45 265 0 min 0 lux 0,00 min -1,9 C -15,1 C
09.12.2010 18:46 -1,1 C 95 % 1021 hPa 0,0 l/m 32,4 km/h (5 Bft) W22.5 260 0 min 0 lux 0,00 min -1,8 C -15,7 C
09.12.2010 19:01 -1,1 C 95 % 1022 hPa 0,0 l/m 36,8 km/h (5 Bft) W45 265 0 min 0 lux 0,00 min -1,8 C -16,8 C
09.12.2010 19:16 -1,1 C 94 % 1022 hPa 0,0 l/m 34,3 km/h (5 Bft) W45 270 0 min 0 lux 0,00 min -1,9 C -16,2 C
09.12.2010 19:32 -1,2 C 95 % 1022 hPa 0,0 l/m 42,2 km/h (6 Bft) W45 270 0 min 0 lux 0,00 min -1,9 C -18,2 C
09.12.2010 19:47 -1,2 C 96 % 1022 hPa 0,0 l/m 33,6 km/h (5 Bft) W45 275 0 min 0 lux 0,00 min -1,8 C -16,2 C
09.12.2010 20:02 -1,2 C 96 % 1022 hPa 0,0 l/m 34,3 km/h (5 Bft) W22.5 260 0 min 0 lux 0,00 min -1,8 C -16,3 C
09.12.2010 20:16 -1,2 C 96 % 1022 hPa 0,0 l/m 38,9 km/h (6 Bft) W45 270 0 min 0 lux 0,00 min -1,8 C -17,5 C
09.12.2010 20:31 -1,2 C 97 % 1022 hPa 0,0 l/m 35,4 km/h (5 Bft) W-SW67.5 255 0 min 0 lux 0,00 min -1,6 C -16,6 C
09.12.2010 20:46 -1,3 C 97 % 1022 hPa 0,0 l/m 36,7 km/h (5 Bft) W45 265 0 min 0 lux 0,00 min -1,7 C -17,1 C
09.12.2010 21:01 -1,4 C 98 % 1022 hPa 0,0 l/m 32,5 km/h (5 Bft) W22.5 265 0 min 0 lux 0,00 min -1,7 C -16,1 C
09.12.2010 21:17 -1,4 C 98 % 1022 hPa 0,0 l/m 34,1 km/h (5 Bft) W67.5 265 0 min 0 lux 0,00 min -1,7 C -16,6 C
09.12.2010 21:32 -1,4 C 98 % 1022 hPa 0,0 l/m 32,9 km/h (5 Bft) W22.5 260 0 min 0 lux 0,00 min -1,7 C -16,2 C
09.12.2010 21:47 -1,3 C 98 % 1022 hPa 0,0 l/m 37,9 km/h (5 Bft) W22.5 265 0 min 0 lux 0,00 min -1,6 C -17,4 C
09.12.2010 22:01 -1,2 C 98 % 1022 hPa 0,0 l/m 32,0 km/h (5 Bft) W22.5 270 0 min 0 lux 0,00 min -1,5 C -15,7 C
09.12.2010 22:16 -1,2 C 98 % 1022 hPa 0,0 l/m 41,4 km/h (6 Bft) W22.5 265 0 min 0 lux 0,00 min -1,5 C -18,0 C
09.12.2010 22:31 -1,2 C 98 % 1022 hPa 0,0 l/m 37,7 km/h (5 Bft) W22.5 260 0 min 0 lux 0,00 min -1,5 C -17,2 C
09.12.2010 22:46 -1,2 C 98 % 1022 hPa 0,0 l/m 35,5 km/h (5 Bft) W-SW45 255 0 min 0 lux 0,00 min -1,5 C -16,7 C
09.12.2010 23:01 -1,2 C 98 % 1022 hPa 0,0 l/m 31,1 km/h (5 Bft) W22.5 260 0 min 0 lux 0,00 min -1,5 C -15,4 C
09.12.2010 23:17 -1,2 C 98 % 1022 hPa 0,0 l/m 30,2 km/h (5 Bft) W22.5 260 0 min 0 lux 0,00 min -1,5 C -15,2 C
09.12.2010 23:32 -1,2 C 98 % 1022 hPa 0,0 l/m 30,8 km/h (5 Bft) W45 260 0 min 0 lux 0,00 min -1,5 C -15,3 C
09.12.2010 23:46 -1,3 C 98 % 1022 hPa 0,3 l/m 33,8 km/h (5 Bft) W67.5 270 0 min 0 lux 14,00 min -1,6 C -16,4 C
09.12.2010 23:55 -1,3 C 97 % 1022 hPa 0,0 l/m 36,3 km/h (5 Bft) W45 265 0 min 0 lux 0,00 min -1,7 C -17,0 C
_ Min-Zeit 00:46 12:32 00:01 - 00:01 - - - - - 00:31 19:32
Minimum _ -6,8 C 92 % 1010 hPa - 0,7 km/h (0 Bft) - - - - - -7,4 C -18,2 C
_ Max-Zeit 13:31 05:32 19:01 00:31 19:32 - - 00:01 10:47 09:17 22:01 00:01
Maximum _ -0,9 C 99 % 1022 hPa 1,5 l/m 42,2 km/h
W (6 Bft)
- - 0 min 17,5 klux 16,00 min -1,5 C -5,7 C
Durchschnitt _ -2,3 C 96 % 1018 hPa #9,0 l/m 25,2 km/h (4 Bft) W - #0 min. 3,05 klux #6:00 h -2,8 C -14,0 C